Location: Marion Hill
(40.7303°N, 80.2959°W)
Time: 09:09:59
(UTC+00:00)

OAO 2 Rocket - Pass Details

Date: 29 October 2020
Orbit: 676 x 746 km, 35.0° (Epoch: 26 November)

Event Time Altitude Azimuth Distance (km) Brightness Sun altitude
Rises 23:37:10 0° 256° (WSW) 3,067 8.4 -15.0°
Reaches altitude 10° 23:39:41 10° 250° (WSW) 2,139 7.1 -15.5°
Maximum altitude 23:44:24 44° 179° (S) 948 4.0 -16.4°
Enters shadow 23:46:57 24° 122° (ESE) 1,400 4.4 -16.9°
